Regional Weather Roundup
Issued by NWS

Home | Current Version | Previous Version | Graphics & Text | Print | Product List | Glossary On
Versions: 1 2 3 4 5 6 7 8 9 10 11 12 13 14 15 16 17 18 19 20 21 22 23 24 25 26 27 28 29 30 31 32 33 34 35 36 37 38 39 40 41 42 43 44 45 46 47 48 49 50
749
ASUS43 KMKX 221911
RWRWI

WISCONSIN REGIONAL WEATHER ROUNDUP
NATIONAL WEATHER SERVICE MILWAUKEE/SULLIVAN WI
200 PM CDT FRI MAY 22 2015

NOTE: "FAIR" INDICATES FEW OR NO CLOUDS BELOW 12,000 FEET WITH NO
SIGNIFICANT WEATHER AND/OR OBSTRUCTIONS TO VISIBILITY.

WIZ001-002-006>008-014>016-023>028-222000-
NORTHWEST WISCONSIN

CITY           SKY/WX    TMP DP  RH WIND       PRES   REMARKS
SUPERIOR ARPT  SUNNY     56  40  55 NE8       30.20S
ASHLAND        SUNNY     68  35  29 N6        30.22S
HAYWARD        SUNNY     69  27  20 VRB5      30.21F
SIREN          SUNNY     69  30  23 CALM      30.22S
CUMBERLAND     SUNNY     66  30  26 SE3       30.22F
RICE LAKE      SUNNY     67  30  25 W6        30.23F
CHETEK         SUNNY     67  33  28 N3        30.22S
LADYSMITH      SUNNY     67  32  27 CALM      30.23F
EAU CLAIRE     SUNNY     69  32  25 CALM      30.22S
MENOMONIE      SUNNY     69  29  22 CALM      30.22S
NEW RICHMOND   SUNNY     68  30  24 E3        30.23S
OSCEOLA        SUNNY     69  36  29 NE5       30.24S
$$

WIZ003>005-009-010-017-018-222000-
NORTH CENTRAL WISCONSIN

CITY           SKY/WX    TMP DP  RH WIND       PRES   REMARKS
MANITOWISH WTR SUNNY     62  26  25 N8        30.22S
ARBOR VITAE    SUNNY     64  23  21 CALM      30.22S
WOODRUFF       SUNNY     64  23  21 CALM      30.22S
RHINELANDER    SUNNY     65  25  22 N9        30.22S
EAGLE RIVER    SUNNY     64  17  16 NE5       30.20F
LAND O LAKES   SUNNY     64  14  14 NW10      30.22S
PHILLIPS       SUNNY     65  32  29 W3        30.21S
TOMAHAWK       SUNNY     65  27  23 NW7G20    30.21F
MEDFORD        SUNNY     66  32  28 S7        30.22F
MERRILL        SUNNY     66  32  28 NW6       30.22S
$$

WIZ029-030-035-036-043>047-222000-
CENTRAL WISCONSIN

CITY           SKY/WX    TMP DP  RH WIND       PRES   REMARKS
WAUSAU         SUNNY     66  33  29 S3        30.21S
MOSINEE        SUNNY     64  36  34 NW8       30.23F
MARSHFIELD     SUNNY     68  34  28 W9        30.23S
STEVENS POINT  SUNNY     64  31  29 SW9       30.22F
WAUPACA        SUNNY     71  27  19 NW7       30.22F
WAUTOMA        SUNNY     70  26  19 W8        30.22F
WISC RAPIDS    SUNNY     70  28  21 VRB5      30.24S
CAMP DOUGLAS   SUNNY     70  36  29 SW6       30.21S
$$

WIZ011>013-019>022-031-037>040-048>050-222000-
NORTHEAST WISCONSIN

CITY           SKY/WX    TMP DP  RH WIND       PRES   REMARKS
ANTIGO         SUNNY     64  30  28 NW8G16    30.22S
SHAWANO        SUNNY     69  30  23 W8        30.21F
OCONTO         SUNNY     61  31  31 SE12      30.23F
STURGEON BAY   SUNNY     54  32  43 SE10      30.29R
GREEN BAY      SUNNY     65  30  27 SW7       30.24S
MANITOWOC      SUNNY     51  32  48 SE10      30.28R
APPLETON       SUNNY     63  30  29 SE8       30.24S
CLINTONVILLE   SUNNY     68  28  22 SW5       30.22S
OSHKOSH        SUNNY     64  39  39 E9        30.23F
$$

WIZ032>034-041-042-053>061-222000-
SOUTHWEST WISCONSIN

CITY           SKY/WX    TMP DP  RH WIND       PRES   REMARKS
LA CROSSE      SUNNY     74  37  26 VRB5      30.21S
SPARTA         SUNNY     70  29  21 NE3       30.22S
VIROQUA        SUNNY     70  32  24 NW5       30.22S
BOSCOBEL       SUNNY     74  36  25 CALM      30.21S
PRAIRIE DU CHI SUNNY     73  33  23 W5        30.21S
PLATTEVILLE    SUNNY     72  37  28 W9        30.22S
$$

WIZ056-057-062-063-064-067-068-222000-
SOUTH CENTRAL WISCONSIN

CITY           SKY/WX    TMP DP  RH WIND       PRES   REMARKS
REEDSBURG      SUNNY     69  36  29 NE5       30.21F
BARABOO/DELLS  SUNNY     70  31  23 N3        30.22S
LONE ROCK      SUNNY     73  33  23 VRB5      30.21S
MINERAL POINT  SUNNY     72  30  21 CALM      30.22S
MADISON        MOSUNNY   70  35  27 VRB5      30.22F
MIDDLETON      SUNNY     71  28  20 W5        30.22S
WATERTOWN      SUNNY     68  37  32 NW5       30.23S
MONROE         SUNNY     70  36  28 NW6       30.22S
JANESVILLE     SUNNY     72  34  25 E5        30.21S
$$

WIZ051-052-058>065-066-070>072-222000-
SOUTHEAST WISCONSIN

CITY           SKY/WX    TMP DP  RH WIND       PRES   REMARKS
MILWAUKEE      SUNNY     55  31  39 E8        30.28R
WAUKESHA       SUNNY     63  34  34 S6        30.25F
MILWAUKEE/TIMM SUNNY     61  21  21 E9        30.26F
RACINE         SUNNY     57  31  37 NE8       30.29R
BURLINGTON     SUNNY     65  32  28 CALM      30.24S
KENOSHA        SUNNY     59  31  34 E8        30.27S
FOND DU LAC    SUNNY     66  31  27 CALM      30.23F
SHEBOYGAN      SUNNY     59  29  31 SE10      30.26S
WEST BEND      MOSUNNY   64  32  29 E10       30.24S
JUNEAU         SUNNY     65  31  28 CALM      30.24S
$$

LSZ147-162-222000-
LAKE SUPERIOR

STATION/POSITION TIME  TEMP    WIND        PRES    WAVE
                       AIR SEA DIR/SP/G            HT/PER
                 (UTC) (F)     (DEG/KT/KT) (MB)    (FT/S)
W MID LAKE BUOY  1850   38 37  120/  6/  6   N/A     0
DEVILS ISLAND    1900   50      90/  4/  5   N/A
PORT WING        1800   46      20/  7/  7   N/A
SAXON HARBOR     1840   53      CALM  /  3   N/A
$$

LMZ867-665-643>646-222000-
LAKE MICHIGAN

STATION/POSITION TIME  TEMP    WIND        PRES    WAVE
                       AIR SEA DIR/SP/G            HT/PER
                 (UTC) (F)     (DEG/KT/KT) (MB)    (FT/S)
CHAMBERS ISLAND  1800   52      80/  8/ 12   N/A
N MID LAKE BUOY  1850   39 36  160/  8/  8   N/A     1
NORTHPORT PIER   1800   44     110/ 10/ 12   N/A
SISTER BAY       1817   54     150/ 12/ 14   N/A
KEWAUNEE LAKESHO 1800   45     120/  4/  8   N/A
SHEBOYGAN LAKESH 1900          130/  8/  9   N/A
PORT WASHINGTON  1800   48     120/  4/  5   N/A
ATWATER BUOY     1800   45 45   60/  4/  6   N/A
MILWAUKEE LAKESH 1800   45      50/  7/  7   N/A
S MID LAKE BUOY  1850   41 38  350/  8/ 10   N/A
KENOSHA   LAKESH 1900   47      40/  6/  7   N/A
$$

TC  - TEMPERATURE IN CELSIUS
VSB - VISIBILITY IN STATUTE MILES
WCI - WIND CHILL INDEX
HX  - HEAT INDEX




USA.gov is the U.S. government's official web portal to all federal, state and local government web resources and services.